SCP
-0 -0 0 0 -0 -0 -0 -0 0 0 -0 -0 0 0 -0 0 0 -0 0 0 -0 -0 -0 0 -0 -0 -0 -0 -0 -0 -0 -0 -0 0 0 0 0 -0 -0 0 0 0 0 -0 -0 -0 -0 0 0
0 -0 0 0 -0 0 0 0 0 0 0 -0 -0 0 -0 -0 0 0 0 0 -0 -0 -0 -0 -0 -0 -0 -0 -0 0 -0 -0 -0 0 0 -0 -0 -0 -0 -0 0 0 0 0 0 -0 -0 -0 -0
0 0 0 0 0 0 -0 0 0 0 0 0 0 0 0 -0 -0 -0 -0 -0 -0 -0 -0 -0 -0 -0 -0 -0 -0 -0 -0 -0 -0 -0 0 -0 0 -0 -0 -0 -0 0 0 0 0 0 -0 -0 -0
0 0 0 0 0 0 0 0 0 0 -0 0 0 0 0 0 -0 0 0 -0 -0 -0 -0 -0 -0 -0 -0 -0 -0 -0 -0 -0 -0 -0 0 0 -0 -0 -0 -0 -0 -0 0 0 0 -0 -0 0 -0
0 0 0 0 0 0 0 0 0 0 0 -0 0 0 0 0 0 -0 -0 0 -0 -0 -0 -0 -0 -0 -0 -0 -0 -0 0 0 -0 -0 -0 -0 -0 -0 -0 -0 -0 -0 0 0 0 0 0 0 0
0 0 0 0 0 0 0 0 0 0 0 0 -0 -0 0 0 0 0 0 0 -0 -0 -0 -0 -0 -0 -0 -0 -0 -0 0 0 0 -0 -0 -0 0 0 0 0 0 -0 0 0 0 0 0 0 0
0 0 0 0 0 0 0 0 0 0 0 0 0 0 0 0 -0 -0 -0 0 -0 -0 -0 -0 -0 -0 -0 -0 -0 -0 -0 0 0 0 0 0 -0 0 0 0 0 0 0 0 0 0 0 0 0
0 0 0 0 0 0 0 0 0 0 0 0 0 0 0 0 -0 -0 -0 -0 -0 -0 0 0 -0 -0 -0 -0 -0 -0 -0 -0 0 0 0 -0 -0 -0 0 0 0 0 0 0 -0 0 0 0 0
0 0 0 0 0 0 0 0 0 0 0 0 0 0 0 0 0 0 0 -0 -0 -0 -0 -0 0 -0 -0 -0 -0 -0 -0 -0 -0 0 -0 -0 0 -0 -0 -0 0 0 0 0 0 0 0 0 0
0 0 0 0 0 0 0 0 0 0 0 0 0 0 0 0 0 0 0 0 -0 -0 0 0 -0 -0 -0 0 -0 -0 -0 -0 -0 -0 -0 -0 0 0 -0 -0 -0 0 0 0 0 0 0 0 0
0 0 0 0 0 0 0 0 0 0 0 0 0 0 0 0 0 0 0 0 0 0 0 0 0 0 -0 0 0 0 -0 -0 -0 -0 -0 -0 -0 0 0 0 0 0 0 0 0 0 0 0 0
0 0 0 0 0 0 0 0 0 0 0 0 0 0 0 0 0 0 0 0 0 0 0 0 -0 0 0 0 0 -0 0 -0 -0 -0 -0 -0 0 0 0 0 0 0 0 0 0 0 0 0 0
0 0 0 0 0 0 0 0 0 0 0 0 0 0 0 0 0 0 0 0 0 0 0 0 0 0 0 0 0 0 0 0 0 0 0 0 0 0 0 0 0 0 0 0 0 0 0 0 0
0 0 0 0 0 0 0 0 0 0 0 0 0 0 0 0 0 0 0 0 0 0 0 0 0 0 0 0 0 0 0 0 0 0 0 0 0 0 0 0 0 0 0 0 0 0 0 0 0
0 0 0 0 0 0 0 0 0 0 0 0 0 0 0 0 0 0 0 0 0 0 0 0 0 0 0 0 0 0 0 0 0 0 0 0 0 0 0 0 0 0 0 0 0 0 0 0 0
0 0 0 0 0 0 0 0 0 0 0 0 0 0 0 0 0 0 0 0 0 0 0 0 0 0 0 0 0 0 0 0 0 0 0 0 0 0 0 0 0 0 0 0 0 0 0 0 0
0 0 0 0 0 0 0 0 -0 0 0 0 0 0 0 0 0 0 0 0 0 0 0 0 0 0 0 0 0 0 0 0 0 0 0 0 0 0 0 0 0 0 0 0 0 0 0 0 0
0 0 0 0 0 0 0 0 0 0 0 0 0 0 0 0 0 0 0 0 0 0 0 0 0 0 0 0 0 0 0 0 0 0 0 0 0 0 0 0 0 0 0 0 0 0 0 0 0
0 0 0 0 0 0 0 0 0 0 0 0 0 0 0 0 0 0 0 0 0 0 0 0 0 0 0 0 0 0 0 0 0 0 0 0 0 0 0 0 0 0 0 0 0 0 0 0 0
0 0 0 0 0 0 0 0 0 0 0 0 0 0 0 0 0 0 0 0 0 0 0 0 0 0 0 0 0 0 0 0 0 0 0 0 0 0 0 0 0 0 0 0 0 0 0 0 0
0 0 0 0 0 0 0 -0 -0 0 0 0 0 0 0 0 0 0 0 0 0 0 0 0 0 0 0 0 0 0 0 0 0 0 0 0 0 0 0 0 0 0 0 0 0 0 0 0 0
0 0 0 0 0 0 -0 -0 -0 0 -0 0 0 0 0 0 0 0 0 0 0 0 0 0 0 0 0 0 0 0 0 0 0 0 0 0 0 0 0 0 0 0 0 0 0 0 0 0 0
0 0 0 0 0 0 0 0 -0 -0 0 0 -0 0 0 0 0 0 0 0 0 0 0 0 0 0 0 0 0 0 0 0 0 0 0 0 0 0 0 0 0 0 0 0 0 0 0 0 0
0 0 0 0 0 0 0 0 -0 -0 0 0 0 0 0 0 0 0 0 0 0 0 0 0 0 0 0 0 0 0 0 0 0 0 0 0 0 0 0 0 0 0 0 0 0 0 0 0 0
0 0 0 0 0 0 -0 0 0 0 0 0 0 0 0 0 0 0 0 0 0 0 0 0 0 0 0 0 0 0 0 0 0 0 0 0 0 0 0 0 0 0 0 0 0 0 0 0 0
0 0 0 0 0 0 -0 0 0 -0 0 0 0 0 0 0 0 0 0 0 0 0 0 0 0 0 0 0 0 0 0 0 0 0 0 0 0 0 0 0 0 0 0 0 0 0 0 0 0
0 0 0 0 0 0 0 0 0 0 0 0 0 0 0 0 0 0 0 0 0 0 0 0 0 0 0 0 0 0 0 0 0 0 0 0 0 0 0 0 0 0 0 0 0 0 0 0 0
0 0 0 0 0 0 0 0 0 0 0 0 0 0 0 0 0 0 0 0 0 0 0 0 0 0 0 0 0 0 0 0 0 0 0 0 0 0 0 0 0 0 0 0 0 0 0 0 0
0 0 0 0 0 0 0 0 0 0 0 0 0 0 0 0 0 0 0 0 0 0 0 0 0 0 0 0 0 0 0 0 0 0 0 0 0 0 0 0 0 0 0 0 0 0 0 0 0
0 0 0 0 0 0 0 0 0 0 0 0 0 0 0 0 0 0 0 0 0 0 0 0 0 0 0 0 0 0 0 0 0 0 0 0 0 0 0 0 0 0 0 0 0 0 0 0 0
Wind_Speed_500mb
31 24 19 11 5 6 11 6 15 12 11 10 12 15 20 33 12 11 31 25 27 27 32 25 21 16 13 10 9 8 7 10 13 12 7 7 10 11 8 6 18 17 19 17 20 23 25 28 29
31 24 14 13 6 6 9 15 14 12 21 12 8 6 5 15 20 29 31 30 26 28 31 26 22 15 12 10 9 11 13 11 13 9 14 11 10 12 9 16 14 16 19 17 16 17 22 25 28
27 17 10 6 6 13 10 14 18 27 15 6 8 10 13 13 16 28 18 39 20 32 26 24 18 17 14 12 12 14 12 8 7 8 13 12 12 13 14 16 14 13 16 16 18 13 17 19 22
24 9 11 6 5 12 20 18 30 23 12 4 5 16 16 13 11 17 36 39 23 25 28 22 17 15 12 12 12 11 11 7 7 4 9 12 14 14 16 14 14 11 11 12 12 10 13 14 17
19 13 8 8 12 9 17 27 28 12 18 14 4 14 18 13 17 24 41 38 33 23 26 23 19 15 11 8 9 7 6 6 11 4 4 7 7 8 14 13 11 10 7 8 6 7 9 8 9
13 5 8 10 5 16 16 19 20 22 24 12 10 31 13 19 21 29 37 35 34 27 25 24 22 17 12 8 6 5 5 10 18 12 7 3 7 7 10 9 12 11 10 7 6 8 5 4 5
12 8 15 16 11 14 14 17 13 22 19 13 6 11 21 25 22 30 34 32 21 24 24 22 23 18 15 11 9 7 7 8 8 3 12 10 8 12 10 11 11 11 11 9 6 5 4 3 2
11 6 13 7 5 9 15 14 10 10 15 19 3 9 17 31 25 32 33 30 24 18 24 22 21 20 16 14 13 12 11 11 10 7 11 18 14 8 11 14 13 12 13 11 9 10 9 8 8
8 6 10 15 12 11 25 13 8 6 21 9 9 28 34 29 31 35 34 31 31 25 19 21 24 20 17 15 16 14 14 14 14 13 13 17 14 10 9 11 15 16 14 13 12 12 14 15 14
6 6 13 15 4 8 24 19 26 10 17 17 22 25 24 26 31 36 38 37 38 33 37 31 29 27 23 21 17 17 17 17 17 17 16 17 16 11 19 17 16 16 18 18 17 17 18 20 19
9 7 16 6 18 16 9 11 4 9 10 23 42 32 30 28 28 27 31 33 34 20 27 33 31 30 30 28 23 21 20 18 20 20 20 16 18 24 30 28 24 24 23 23 22 22 23 23 23
12 23 32 13 9 6 12 9 16 15 3 10 22 34 29 30 29 29 25 25 23 23 20 24 28 33 32 31 32 27 22 21 22 20 21 21 22 26 26 28 31 26 26 23 24 24 22 24 24
18 21 26 15 4 8 15 11 9 20 25 8 12 23 23 26 26 26 24 25 27 27 27 22 25 28 31 36 34 34 31 32 29 29 29 29 28 27 28 27 28 32 30 30 27 28 29 30 29
7 17 39 15 15 11 7 14 21 15 28 21 19 18 25 27 28 28 30 29 33 32 29 29 26 27 30 33 36 36 34 34 35 34 33 32 32 31 29 29 32 33 34 34 33 31 33 33 33
13 9 16 22 12 11 4 16 23 41 30 31 35 31 31 32 31 32 32 34 33 34 33 32 32 31 33 35 36 39 38 36 38 39 37 39 36 35 36 33 33 34 34 35 37 37 36 38 38
7 8 6 13 28 15 13 16 16 50 46 47 45 38 40 42 38 36 34 32 30 28 31 31 36 42 40 36 38 42 44 44 43 45 44 42 43 38 41 41 39 36 36 37 38 38 40 41 39
14 8 18 15 39 12 17 10 20 36 25 39 56 51 47 44 41 47 45 41 39 35 33 37 40 41 42 42 41 40 40 41 46 50 49 51 50 48 44 45 44 42 41 41 40 39 40 40 40
14 18 13 20 13 21 14 28 22 25 11 19 32 32 36 44 46 46 38 35 39 43 45 41 39 40 40 38 41 42 42 47 47 48 51 48 50 55 52 48 47 47 48 47 45 44 41 43 42
12 6 18 15 13 5 17 30 23 37 36 34 40 34 36 38 38 42 44 42 40 44 42 44 41 41 45 46 45 45 49 51 53 53 53 54 52 45 56 57 52 50 52 49 48 48 47 46 43
27 14 15 9 9 5 13 30 24 26 33 50 47 52 55 50 45 40 41 39 45 47 43 47 52 49 47 52 52 50 48 49 48 49 49 55 55 53 50 57 58 53 53 51 48 47 47 48 42
26 21 13 10 7 4 14 25 25 28 64 64 64 63 54 51 51 49 46 45 45 50 53 54 48 48 49 52 52 51 46 46 50 49 46 52 56 51 50 54 56 54 53 54 52 51 51 50 50
25 12 19 15 2 7 18 12 11 11 26 38 60 56 56 58 57 53 50 43 40 38 39 46 51 50 42 43 50 54 55 54 53 50 44 43 36 51 52 52 57 56 53 55 56 55 54 52 56
13 10 18 12 13 12 19 10 12 18 12 8 31 49 48 54 58 49 40 43 44 50 58 57 53 45 45 48 50 48 51 49 39 31 34 33 32 39 38 46 53 56 55 54 57 57 57 58 62
8 5 3 4 3 14 23 20 19 21 14 13 29 50 46 42 38 38 36 34 32 32 30 29 31 39 44 48 53 55 54 49 47 44 37 33 31 29 29 30 36 42 44 46 48 49 50 49 54
17 16 4 3 7 15 17 24 34 19 6 4 7 21 34 34 39 41 33 33 32 25 20 23 25 29 32 36 41 44 47 47 39 37 38 40 37 34 36 34 35 38 39 40 40 41 44 47 48
36 33 9 17 10 6 26 18 11 22 39 30 25 17 34 33 36 31 34 26 22 23 23 26 27 26 27 31 35 38 36 38 38 40 42 41 40 39 41 39 31 37 39 40 40 39 43 46 47
23 36 24 12 6 5 11 11 8 14 7 10 25 23 31 37 43 39 31 26 23 24 26 26 25 23 21 20 21 23 29 36 40 40 39 40 39 36 36 35 35 33 35 39 39 40 36 27 29
25 20 20 16 7 8 12 11 16 10 13 14 17 25 27 34 35 32 29 28 28 29 30 29 28 26 23 22 21 21 24 27 30 29 28 26 22 21 21 22 22 22 22 23 25 27 29 34 37
28 28 14 11 15 9 6 12 19 24 21 23 20 39 37 50 40 35 33 32 31 31 32 32 28 26 24 25 26 25 21 19 16 13 11 8 6 4 7 10 14 16 19 22 25 29 35 36 40
46 44 42 15 23 18 23 14 10 18 14 13 28 42 36 49 45 41 40 38 35 35 34 32 29 27 25 25 25 24 23 22 19 15 11 8 7 8 12 18 24 29 31 33 36 37 40 45 47
Wind_Direction_500mb
340 340 324 275 250 187 134 65 98 116 136 64 39 14 67 49 23 95 141 145 184 169 157 148 139 134 127 115 119 127 142 170 176 181 162 139 162 150 146 118 98 95 94 98 85 85 86 88 93
334 347 318 258 233 165 96 135 113 85 95 99 112 323 110 74 69 127 151 145 177 159 155 149 142 135 131 122 123 117 108 127 118 151 161 138 136 158 147 127 108 102 100 86 88 84 87 90 94
339 322 291 302 264 20 108 101 104 102 111 98 118 41 34 87 89 131 164 147 174 145 153 156 144 136 131 122 123 123 144 142 87 139 138 134 114 130 139 121 127 111 104 97 102 95 96 94 94
336 316 246 258 302 35 101 99 115 129 117 110 323 92 88 87 126 170 145 145 155 158 162 163 156 141 123 122 119 130 162 143 126 67 120 132 131 143 149 129 131 147 120 109 93 114 107 102 96
326 271 274 243 79 90 87 119 140 148 137 151 203 90 97 94 145 151 141 146 155 177 170 173 170 159 146 128 120 119 142 151 156 172 298 156 144 150 153 148 153 159 148 143 138 114 115 117 105
299 236 289 249 155 101 115 141 150 128 118 125 139 107 88 131 130 142 145 148 164 181 179 178 178 176 167 152 149 155 152 153 178 187 174 165 177 170 183 174 175 182 195 183 187 154 140 108 96
305 307 267 310 150 126 129 154 174 140 146 119 121 95 135 143 156 152 147 152 195 192 179 183 189 191 189 181 178 197 192 196 228 284 187 197 216 184 200 198 194 218 205 220 216 187 212 236 261
306 288 278 262 262 142 121 178 80 124 79 126 147 158 164 161 160 155 151 164 182 207 195 188 196 199 207 208 203 202 208 213 222 222 225 206 224 199 203 209 218 225 221 229 226 220 233 256 267
298 273 258 239 254 135 141 168 163 98 122 115 82 105 143 168 153 156 161 171 175 190 186 200 202 210 209 211 209 219 223 226 231 229 224 244 255 248 243 228 230 236 246 244 243 239 241 250 257
246 242 260 354 178 91 155 200 154 158 159 140 123 130 157 157 159 168 175 181 201 212 193 199 211 209 210 209 231 221 232 235 238 242 242 239 237 248 272 248 246 254 258 259 256 254 250 251 259
214 243 280 23 16 15 142 192 109 194 213 184 176 170 167 165 166 179 185 194 212 225 211 211 215 213 215 216 229 233 237 233 238 239 245 237 233 219 240 254 261 265 264 266 270 268 266 262 261
258 253 275 340 47 12 295 232 189 213 188 114 82 169 167 178 183 191 199 209 206 231 219 214 217 223 226 225 222 231 232 244 250 250 246 249 243 245 251 250 259 255 259 259 267 265 267 263 264
253 266 268 244 360 279 304 284 244 238 223 238 184 151 180 187 197 200 212 203 215 228 232 226 223 226 225 230 233 233 229 233 245 245 247 246 248 249 254 258 255 262 263 267 263 263 268 270 271
39 277 261 216 217 234 254 269 265 238 240 232 199 212 198 202 202 205 205 211 213 220 227 241 245 234 233 233 234 240 238 234 241 240 249 251 249 250 253 255 254 255 260 263 263 263 265 269 274
294 285 268 252 210 272 240 259 236 241 242 241 231 217 221 221 215 213 222 219 223 226 228 234 252 255 245 240 238 239 244 243 241 243 241 250 253 251 254 256 257 257 258 260 261 261 260 265 271
192 247 255 204 215 223 167 259 223 231 234 242 249 237 234 229 226 228 226 234 241 239 240 246 240 251 258 252 248 245 244 245 246 245 250 248 255 256 253 255 257 260 260 259 260 262 263 266 271
203 218 207 266 193 189 177 271 241 243 220 236 233 240 243 244 242 233 234 228 227 229 235 245 245 245 246 261 261 252 249 252 249 248 251 245 248 255 255 257 259 259 258 260 262 262 264 269 274
187 217 248 211 192 209 211 241 284 297 258 250 264 256 246 246 244 245 238 235 233 242 241 231 233 246 253 248 249 251 250 260 262 262 262 257 243 246 253 255 258 257 257 259 261 265 266 268 271
247 330 233 260 147 165 235 260 256 249 236 228 243 251 248 245 246 245 244 245 243 236 227 223 231 238 247 248 244 242 246 249 255 261 264 266 266 247 246 253 252 253 257 261 261 264 266 267 270
254 243 275 231 55 84 281 278 271 258 251 248 237 232 240 249 249 244 244 242 243 247 249 246 248 243 239 250 255 253 257 258 256 256 256 263 263 265 253 243 251 252 253 255 258 256 263 269 264
234 238 236 268 113 240 292 274 242 239 241 243 240 241 243 243 244 246 245 245 249 251 252 256 251 247 248 239 245 254 252 245 249 252 257 254 257 255 256 237 243 248 248 256 260 253 250 259 269
236 208 256 254 253 255 149 289 287 255 230 231 236 235 241 246 249 250 247 245 240 224 225 235 247 253 245 242 237 243 244 246 252 263 272 274 255 247 255 247 241 245 249 253 257 260 257 257 263
234 254 222 233 266 316 266 288 276 212 261 202 194 214 232 241 243 249 247 226 231 242 244 249 252 244 236 229 226 233 240 239 246 247 258 252 245 249 254 249 246 245 248 252 255 258 257 258 257
193 246 115 82 249 252 223 211 240 233 210 212 201 211 219 226 231 230 223 222 231 232 233 234 228 233 236 234 234 232 234 245 247 240 238 244 240 257 251 247 245 246 248 254 260 259 262 264 259
193 173 146 205 201 234 172 207 244 278 251 199 202 224 209 214 210 214 226 232 226 229 231 233 234 239 240 238 236 231 229 223 225 225 230 234 242 240 238 238 232 238 242 245 252 260 262 263 267
199 195 166 187 198 243 196 233 242 217 246 263 205 225 208 193 194 200 210 220 227 228 235 240 240 241 241 237 231 226 227 222 226 228 233 235 232 235 238 238 233 239 246 252 251 254 265 270 268
190 215 228 322 164 103 245 274 257 126 171 166 170 178 201 186 179 191 214 224 223 229 232 233 234 233 231 232 231 219 221 225 226 229 230 234 239 241 243 246 249 251 255 259 265 267 270 276 292
184 164 206 222 209 237 242 244 233 185 190 190 206 210 203 186 192 203 209 219 226 224 223 224 221 214 210 207 200 215 219 221 227 225 228 230 230 241 250 257 264 272 278 284 282 280 281 281 277
208 206 214 183 224 192 248 246 194 219 203 198 197 211 205 178 190 205 215 220 222 220 217 217 211 206 202 199 196 204 199 196 195 194 196 200 213 253 278 282 281 284 287 287 286 287 286 283 280
203 206 203 195 208 226 255 249 135 90 33 54 208 205 204 193 197 205 214 217 214 211 208 207 204 196 187 182 174 167 166 165 166 168 175 191 223 258 281 292 296 295 295 293 292 293 292 291 288
Wind_Speed_850mb
31 24 19 11 5 6 11 6 15 12 11 10 12 15 20 33 12 11 31 25 27 27 32 25 21 16 13 10 9 8 7 10 13 12 7 7 10 11 8 6 18 17 19 17 20 23 25 28 29
31 24 14 13 6 6 9 15 14 12 21 12 8 6 5 15 20 29 31 30 26 28 31 26 22 15 12 10 9 11 13 11 13 9 14 11 10 12 9 16 14 16 19 17 16 17 22 25 28
27 17 10 6 6 13 10 14 18 27 15 6 8 10 13 13 16 28 18 39 20 32 26 24 18 17 14 12 12 14 12 8 7 8 13 12 12 13 14 16 14 13 16 16 18 13 17 19 22
24 9 11 6 5 12 20 18 30 23 12 4 5 16 16 13 11 17 36 39 23 25 28 22 17 15 12 12 12 11 11 7 7 4 9 12 14 14 16 14 14 11 11 12 12 10 13 14 17
19 13 8 8 12 9 17 27 28 12 18 14 4 14 18 13 17 24 41 38 33 23 26 23 19 15 11 8 9 7 6 6 11 4 4 7 7 8 14 13 11 10 7 8 6 7 9 8 9
13 5 8 10 5 16 16 19 20 22 24 12 10 31 13 19 21 29 37 35 34 27 25 24 22 17 12 8 6 5 5 10 18 12 7 3 7 7 10 9 12 11 10 7 6 8 5 4 5
12 8 15 16 11 14 14 17 13 22 19 13 6 11 21 25 22 30 34 32 21 24 24 22 23 18 15 11 9 7 7 8 8 3 12 10 8 12 10 11 11 11 11 9 6 5 4 3 2
11 6 13 7 5 9 15 14 10 10 15 19 3 9 17 31 25 32 33 30 24 18 24 22 21 20 16 14 13 12 11 11 10 7 11 18 14 8 11 14 13 12 13 11 9 10 9 8 8
8 6 10 15 12 11 25 13 8 6 21 9 9 28 34 29 31 35 34 31 31 25 19 21 24 20 17 15 16 14 14 14 14 13 13 17 14 10 9 11 15 16 14 13 12 12 14 15 14
6 6 13 15 4 8 24 19 26 10 17 17 22 25 24 26 31 36 38 37 38 33 37 31 29 27 23 21 17 17 17 17 17 17 16 17 16 11 19 17 16 16 18 18 17 17 18 20 19
9 7 16 6 18 16 9 11 4 9 10 23 42 32 30 28 28 27 31 33 34 20 27 33 31 30 30 28 23 21 20 18 20 20 20 16 18 24 30 28 24 24 23 23 22 22 23 23 23
12 23 32 13 9 6 12 9 16 15 3 10 22 34 29 30 29 29 25 25 23 23 20 24 28 33 32 31 32 27 22 21 22 20 21 21 22 26 26 28 31 26 26 23 24 24 22 24 24
18 21 26 15 4 8 15 11 9 20 25 8 12 23 23 26 26 26 24 25 27 27 27 22 25 28 31 36 34 34 31 32 29 29 29 29 28 27 28 27 28 32 30 30 27 28 29 30 29
7 17 39 15 15 11 7 14 21 15 28 21 19 18 25 27 28 28 30 29 33 32 29 29 26 27 30 33 36 36 34 34 35 34 33 32 32 31 29 29 32 33 34 34 33 31 33 33 33
13 9 16 22 12 11 4 16 23 41 30 31 35 31 31 32 31 32 32 34 33 34 33 32 32 31 33 35 36 39 38 36 38 39 37 39 36 35 36 33 33 34 34 35 37 37 36 38 38
7 8 6 13 28 15 13 16 16 50 46 47 45 38 40 42 38 36 34 32 30 28 31 31 36 42 40 36 38 42 44 44 43 45 44 42 43 38 41 41 39 36 36 37 38 38 40 41 39
14 8 18 15 39 12 17 10 20 36 25 39 56 51 47 44 41 47 45 41 39 35 33 37 40 41 42 42 41 40 40 41 46 50 49 51 50 48 44 45 44 42 41 41 40 39 40 40 40
14 18 13 20 13 21 14 28 22 25 11 19 32 32 36 44 46 46 38 35 39 43 45 41 39 40 40 38 41 42 42 47 47 48 51 48 50 55 52 48 47 47 48 47 45 44 41 43 42
12 6 18 15 13 5 17 30 23 37 36 34 40 34 36 38 38 42 44 42 40 44 42 44 41 41 45 46 45 45 49 51 53 53 53 54 52 45 56 57 52 50 52 49 48 48 47 46 43
27 14 15 9 9 5 13 30 24 26 33 50 47 52 55 50 45 40 41 39 45 47 43 47 52 49 47 52 52 50 48 49 48 49 49 55 55 53 50 57 58 53 53 51 48 47 47 48 42
26 21 13 10 7 4 14 25 25 28 64 64 64 63 54 51 51 49 46 45 45 50 53 54 48 48 49 52 52 51 46 46 50 49 46 52 56 51 50 54 56 54 53 54 52 51 51 50 50
25 12 19 15 2 7 18 12 11 11 26 38 60 56 56 58 57 53 50 43 40 38 39 46 51 50 42 43 50 54 55 54 53 50 44 43 36 51 52 52 57 56 53 55 56 55 54 52 56
13 10 18 12 13 12 19 10 12 18 12 8 31 49 48 54 58 49 40 43 44 50 58 57 53 45 45 48 50 48 51 49 39 31 34 33 32 39 38 46 53 56 55 54 57 57 57 58 62
8 5 3 4 3 14 23 20 19 21 14 13 29 50 46 42 38 38 36 34 32 32 30 29 31 39 44 48 53 55 54 49 47 44 37 33 31 29 29 30 36 42 44 46 48 49 50 49 54
17 16 4 3 7 15 17 24 34 19 6 4 7 21 34 34 39 41 33 33 32 25 20 23 25 29 32 36 41 44 47 47 39 37 38 40 37 34 36 34 35 38 39 40 40 41 44 47 48
36 33 9 17 10 6 26 18 11 22 39 30 25 17 34 33 36 31 34 26 22 23 23 26 27 26 27 31 35 38 36 38 38 40 42 41 40 39 41 39 31 37 39 40 40 39 43 46 47
23 36 24 12 6 5 11 11 8 14 7 10 25 23 31 37 43 39 31 26 23 24 26 26 25 23 21 20 21 23 29 36 40 40 39 40 39 36 36 35 35 33 35 39 39 40 36 27 29
25 20 20 16 7 8 12 11 16 10 13 14 17 25 27 34 35 32 29 28 28 29 30 29 28 26 23 22 21 21 24 27 30 29 28 26 22 21 21 22 22 22 22 23 25 27 29 34 37
28 28 14 11 15 9 6 12 19 24 21 23 20 39 37 50 40 35 33 32 31 31 32 32 28 26 24 25 26 25 21 19 16 13 11 8 6 4 7 10 14 16 19 22 25 29 35 36 40
46 44 42 15 23 18 23 14 10 18 14 13 28 42 36 49 45 41 40 38 35 35 34 32 29 27 25 25 25 24 23 22 19 15 11 8 7 8 12 18 24 29 31 33 36 37 40 45 47
Wind_Direction_850mb
340 340 324 275 250 187 134 65 98 116 136 64 39 14 67 49 23 95 141 145 184 169 157 148 139 134 127 115 119 127 142 170 176 181 162 139 162 150 146 118 98 95 94 98 85 85 86 88 93
334 347 318 258 233 165 96 135 113 85 95 99 112 323 110 74 69 127 151 145 177 159 155 149 142 135 131 122 123 117 108 127 118 151 161 138 136 158 147 127 108 102 100 86 88 84 87 90 94
339 322 291 302 264 20 108 101 104 102 111 98 118 41 34 87 89 131 164 147 174 145 153 156 144 136 131 122 123 123 144 142 87 139 138 134 114 130 139 121 127 111 104 97 102 95 96 94 94
336 316 246 258 302 35 101 99 115 129 117 110 323 92 88 87 126 170 145 145 155 158 162 163 156 141 123 122 119 130 162 143 126 67 120 132 131 143 149 129 131 147 120 109 93 114 107 102 96
326 271 274 243 79 90 87 119 140 148 137 151 203 90 97 94 145 151 141 146 155 177 170 173 170 159 146 128 120 119 142 151 156 172 298 156 144 150 153 148 153 159 148 143 138 114 115 117 105
299 236 289 249 155 101 115 141 150 128 118 125 139 107 88 131 130 142 145 148 164 181 179 178 178 176 167 152 149 155 152 153 178 187 174 165 177 170 183 174 175 182 195 183 187 154 140 108 96
305 307 267 310 150 126 129 154 174 140 146 119 121 95 135 143 156 152 147 152 195 192 179 183 189 191 189 181 178 197 192 196 228 284 187 197 216 184 200 198 194 218 205 220 216 187 212 236 261
306 288 278 262 262 142 121 178 80 124 79 126 147 158 164 161 160 155 151 164 182 207 195 188 196 199 207 208 203 202 208 213 222 222 225 206 224 199 203 209 218 225 221 229 226 220 233 256 267
298 273 258 239 254 135 141 168 163 98 122 115 82 105 143 168 153 156 161 171 175 190 186 200 202 210 209 211 209 219 223 226 231 229 224 244 255 248 243 228 230 236 246 244 243 239 241 250 257
246 242 260 354 178 91 155 200 154 158 159 140 123 130 157 157 159 168 175 181 201 212 193 199 211 209 210 209 231 221 232 235 238 242 242 239 237 248 272 248 246 254 258 259 256 254 250 251 259
214 243 280 23 16 15 142 192 109 194 213 184 176 170 167 165 166 179 185 194 212 225 211 211 215 213 215 216 229 233 237 233 238 239 245 237 233 219 240 254 261 265 264 266 270 268 266 262 261
258 253 275 340 47 12 295 232 189 213 188 114 82 169 167 178 183 191 199 209 206 231 219 214 217 223 226 225 222 231 232 244 250 250 246 249 243 245 251 250 259 255 259 259 267 265 267 263 264
253 266 268 244 360 279 304 284 244 238 223 238 184 151 180 187 197 200 212 203 215 228 232 226 223 226 225 230 233 233 229 233 245 245 247 246 248 249 254 258 255 262 263 267 263 263 268 270 271
39 277 261 216 217 234 254 269 265 238 240 232 199 212 198 202 202 205 205 211 213 220 227 241 245 234 233 233 234 240 238 234 241 240 249 251 249 250 253 255 254 255 260 263 263 263 265 269 274
294 285 268 252 210 272 240 259 236 241 242 241 231 217 221 221 215 213 222 219 223 226 228 234 252 255 245 240 238 239 244 243 241 243 241 250 253 251 254 256 257 257 258 260 261 261 260 265 271
192 247 255 204 215 223 167 259 223 231 234 242 249 237 234 229 226 228 226 234 241 239 240 246 240 251 258 252 248 245 244 245 246 245 250 248 255 256 253 255 257 260 260 259 260 262 263 266 271
203 218 207 266 193 189 177 271 241 243 220 236 233 240 243 244 242 233 234 228 227 229 235 245 245 245 246 261 261 252 249 252 249 248 251 245 248 255 255 257 259 259 258 260 262 262 264 269 274
187 217 248 211 192 209 211 241 284 297 258 250 264 256 246 246 244 245 238 235 233 242 241 231 233 246 253 248 249 251 250 260 262 262 262 257 243 246 253 255 258 257 257 259 261 265 266 268 271
247 330 233 260 147 165 235 260 256 249 236 228 243 251 248 245 246 245 244 245 243 236 227 223 231 238 247 248 244 242 246 249 255 261 264 266 266 247 246 253 252 253 257 261 261 264 266 267 270
254 243 275 231 55 84 281 278 271 258 251 248 237 232 240 249 249 244 244 242 243 247 249 246 248 243 239 250 255 253 257 258 256 256 256 263 263 265 253 243 251 252 253 255 258 256 263 269 264
234 238 236 268 113 240 292 274 242 239 241 243 240 241 243 243 244 246 245 245 249 251 252 256 251 247 248 239 245 254 252 245 249 252 257 254 257 255 256 237 243 248 248 256 260 253 250 259 269
236 208 256 254 253 255 149 289 287 255 230 231 236 235 241 246 249 250 247 245 240 224 225 235 247 253 245 242 237 243 244 246 252 263 272 274 255 247 255 247 241 245 249 253 257 260 257 257 263
234 254 222 233 266 316 266 288 276 212 261 202 194 214 232 241 243 249 247 226 231 242 244 249 252 244 236 229 226 233 240 239 246 247 258 252 245 249 254 249 246 245 248 252 255 258 257 258 257
193 246 115 82 249 252 223 211 240 233 210 212 201 211 219 226 231 230 223 222 231 232 233 234 228 233 236 234 234 232 234 245 247 240 238 244 240 257 251 247 245 246 248 254 260 259 262 264 259
193 173 146 205 201 234 172 207 244 278 251 199 202 224 209 214 210 214 226 232 226 229 231 233 234 239 240 238 236 231 229 223 225 225 230 234 242 240 238 238 232 238 242 245 252 260 262 263 267
199 195 166 187 198 243 196 233 242 217 246 263 205 225 208 193 194 200 210 220 227 228 235 240 240 241 241 237 231 226 227 222 226 228 233 235 232 235 238 238 233 239 246 252 251 254 265 270 268
190 215 228 322 164 103 245 274 257 126 171 166 170 178 201 186 179 191 214 224 223 229 232 233 234 233 231 232 231 219 221 225 226 229 230 234 239 241 243 246 249 251 255 259 265 267 270 276 292
184 164 206 222 209 237 242 244 233 185 190 190 206 210 203 186 192 203 209 219 226 224 223 224 221 214 210 207 200 215 219 221 227 225 228 230 230 241 250 257 264 272 278 284 282 280 281 281 277
208 206 214 183 224 192 248 246 194 219 203 198 197 211 205 178 190 205 215 220 222 220 217 217 211 206 202 199 196 204 199 196 195 194 196 200 213 253 278 282 281 284 287 287 286 287 286 283 280
203 206 203 195 208 226 255 249 135 90 33 54 208 205 204 193 197 205 214 217 214 211 208 207 204 196 187 182 174 167 166 165 166 168 175 191 223 258 281 292 296 295 295 293 292 293 292 291 288